Location: Eagle Observatory
(42.5300°N, 88.2800°W)
Time: 02:02:12
(UTC-06:00)

HST - Visible Passes

Search period start: 24 November 2014 00:00
Search period end: 04 December 2014 00:00
Orbit: 545 x 550 km, 28.5° (Epoch: 23 November)

Date Brightness Start Highest point End Pass type
(mag) Time Alt. Az. Time Alt. Az. Time Alt. Az.
24 Nov 3.5 05:00:27 10° S 05:01:31 11° S 05:02:34 10° SSE visible
25 Nov 3.4 04:52:39 10° SSW 04:53:50 11° S 04:55:13 10° SSE visible
26 Nov 3.3 04:45:40 12° S 04:46:09 12° S 04:47:39 10° SSE visible
27 Nov 3.4 04:38:39 12° S 04:38:39 12° S 04:39:55 10° SSE visible
28 Nov 3.5 04:31:36 11° S 04:31:36 11° S 04:32:01 10° SSE visible
